Location: Newark
(49.9828°N, 3.1606°E)
Time: 11:32:06
(UTC+00:00)

Envisat - Pass Details

Date: 27 January 2020
Orbit: 764 x 766 km, 98.1° (Epoch: 20 February)

Event Time Altitude Azimuth Distance (km) Brightness Sun altitude
Rises 17:54:24 0° 179° (S) 3,221 6.4 -13.1°
Reaches altitude 10° 17:56:45 10° 184° (S) 2,299 5.7 -13.5°
Maximum altitude 18:01:41 51° 261° (W) 960 4.0 -14.3°
Drops below altitude 10° 18:06:39 10° 337° (NNW) 2,315 5.6 -15.1°
Sets 18:09:03 0° 343° (NNW) 3,246 6.3 -15.4°
